Volver al catálogo

VIGORIDE 7

ActivoCienciaSSO
NORAD 68473·PAYLOAD·🇺🇸 United States

Lanzado Mar 30, 2026 desde Vandenberg Space Force Base

Loading…

Próximos Pases (próximas 24 horas)

TLE

ActualizadoSource: Space-Track

Época: Sep 14, 2026, 14:36 UTC

1 68473U 26067BK  26257.60861138  .00005994  00000-0  25263-3 0  9992
2 68473  97.4638 215.6486 0008937 184.7064 175.4091 15.23672484 25541

Sigue VIGORIDE 7 en tiempo real con AllMySat

Download on the App Store